Location: Elstree
(51.6403°N, 0.2969°W)
Time: 08:12:50
(UTC+00:00)

Envisat - Pass Details

Date: 07 December 2022
Orbit: 763 x 765 km, 98.2° (Epoch: 04 February)

Event Time Altitude Azimuth Distance (km) Brightness Sun altitude
Rises 03:29:33 0° 21° (NNE) 3,247 6.6 -39.5°
Reaches altitude 10° 03:32:09 10° 32° (NNE) 2,315 5.9 -39.1°
Enters shadow 03:33:35 17° 43° (NE) 1,856 5.4 -38.9°
